Location: Milevsko
(49.4500°N, 14.3670°E)
Time: 20:40:40
(UTC+01:00)

ISS - Pass Details

Date: 16 July 2018
Orbit: 402 x 409 km, 51.6° (Epoch: 13 November)

Event Time Altitude Azimuth Distance (km) Brightness Sun altitude
Exits shadow 02:43:41 - 275° (W) 1,600 -1.0 -16.1°
Reaches altitude 10° 02:43:58 10° 276° (W) 1,487 -1.1 -16.0°
Drops below altitude 10° 02:50:35 10° 77° (ENE) 1,495 -0.4 -15.6°
Enters shadow 03:52:09 -58° 279° (W) 11,327 3.4 -10.4°
Maximum altitude 04:24:04 81° 14° (NNE) 427 -3.6 -7.0°
